| time (UTC) | temp C | wind direction | speed KPH | gust KPH | rain 1hr cm | rain 24hr cm | rain mn cm | humidity % | barometer mb |
| 20260506092556 | 22 | 152 | 8.0 | 11.3 | 0.00 | 0.00 | 0.00 | 95 | 1008.1 |
| 20260506092055 | 22 | 165 | 6.4 | 11.3 | 0.00 | 0.00 | 0.00 | 94 | 1008.1 |
| 20260506091600 | 22 | 148 | 6.4 | 12.9 | 0.00 | 0.00 | 0.00 | 95 | 1008.1 |
| 20260506091059 | 22 | 155 | 6.4 | 12.9 | 0.00 | 0.00 | 0.00 | 94 | 1008.0 |
| 20260506090558 | 22 | 185 | 8.0 | 14.5 | 0.00 | 0.00 | 0.00 | 94 | 1007.9 |
| 20260506090104 | 22 | 158 | 9.7 | 14.5 | 0.00 | 0.00 | 0.00 | 94 | 1007.9 |
| 20260506085556 | 23 | 170 | 8.0 | 16.1 | 0.00 | 0.00 | 0.00 | 94 | 1007.9 |
| 20260506085055 | 23 | 159 | 9.7 | 16.1 | 0.00 | 0.00 | 0.00 | 94 | 1007.9 |
| 20260506084558 | 23 | 164 | 11.3 | 16.1 | 0.00 | 0.00 | 0.00 | 94 | 1007.9 |
| 20260506084055 | 23 | 144 | 9.7 | 14.5 | 0.00 | 0.00 | 0.00 | 94 | 1007.9 |
| 20260506083554 | 23 | 141 | 11.3 | 14.5 | 0.00 | 0.00 | 0.00 | 94 | 1007.9 |
| 20260506083056 | 23 | 150 | 8.0 | 14.5 | 0.00 | 0.00 | 0.00 | 93 | 1008.1 |
| 20260506082555 | 23 | 174 | 9.7 | 17.7 | 0.00 | 0.00 | 0.00 | 93 | 1008.0 |
| 20260506082055 | 23 | 154 | 11.3 | 17.7 | 0.00 | 0.00 | 0.00 | 93 | 1008.0 |
| 20260506081557 | 23 | 174 | 9.7 | 16.1 | 0.00 | 0.00 | 0.00 | 93 | 1008.0 |
| 20260506081056 | 23 | 154 | 12.9 | 16.1 | 0.00 | 0.00 | 0.00 | 93 | 1008.0 |
| 20260506080555 | 23 | 156 | 11.3 | 16.1 | 0.00 | 0.00 | 0.00 | 93 | 1008.0 |
| 20260506080106 | 23 | 152 | 12.9 | 17.7 | 0.00 | 0.00 | 0.00 | 93 | 1008.0 |
| 20260506073055 | 23 | 170 | 9.7 | 17.7 | 0.00 | 0.00 | 0.00 | 93 | 1008.7 |
| 20260506072555 | 23 | 156 | 9.7 | 19.3 | 0.00 | 0.00 | 0.00 | 93 | 1008.7 |
| 20260506072055 | 23 | 163 | 11.3 | 19.3 | 0.00 | 0.00 | 0.00 | 93 | 1008.7 |
| 20260506071604 | 23 | 174 | 12.9 | 19.3 | 0.00 | 0.00 | 0.00 | 93 | 1008.8 |
| 20260506071055 | 23 | 150 | 11.3 | 17.7 | 0.00 | 0.00 | 0.00 | 93 | 1008.8 |
| 20260506070555 | 23 | 162 | 11.3 | 19.3 | 0.00 | 0.00 | 0.00 | 93 | 1008.9 |
| 20260506062055 | 23 | 155 | 12.9 | 17.7 | 0.00 | 0.00 | 0.00 | 93 | 1008.9 |
| 20260506061554 | 23 | 146 | 9.7 | 16.1 | 0.00 | 0.00 | 0.00 | 93 | 1009.1 |
| 20260506061056 | 23 | 160 | 11.3 | 16.1 | 0.00 | 0.00 | 0.00 | 93 | 1009.1 |
| 20260506060555 | 23 | 161 | 9.7 | 16.1 | 0.00 | 0.00 | 0.00 | 93 | 1009.1 |
| 20260506051052 | 23 | 153 | 8.0 | 14.5 | 0.00 | 0.00 | 0.00 | 91 | 1009.2 |
| 20260506050551 | 23 | 162 | 9.7 | 14.5 | 0.00 | 0.00 | 0.00 | 91 | 1009.2 |
| 20260506050107 | 23 | 163 | 9.7 | 14.5 | 0.00 | 0.00 | 0.00 | 91 | 1009.2 |
| 20260506045051 | 24 | 151 | 12.9 | 19.3 | 0.00 | 0.00 | 0.00 | 90 | 1009.1 |
| 20260506044554 | 24 | 155 | 12.9 | 19.3 | 0.00 | 0.00 | 0.00 | 90 | 1009.2 |
| 20260506044051 | 24 | 166 | 11.3 | 19.3 | 0.00 | 0.00 | 0.00 | 90 | 1009.2 |
| 20260506043554 | 24 | 167 | 12.9 | 19.3 | 0.00 | 0.00 | 0.00 | 90 | 1009.2 |
| 20260506043053 | 24 | 155 | 12.9 | 20.9 | 0.00 | 0.00 | 0.00 | 90 | 1009.1 |
| 20260506042554 | 24 | 157 | 16.1 | 22.5 | 0.00 | 0.00 | 0.00 | 90 | 1009.0 |
| 20260506042054 | 24 | 146 | 12.9 | 22.5 | 0.00 | 0.00 | 0.00 | 90 | 1008.9 |
| 20260506041600 | 24 | 204 | 14.5 | 22.5 | 0.00 | 0.00 | 0.00 | 90 | 1008.9 |
| 20260506041050 | 24 | 154 | 14.5 | 22.5 | 0.00 | 0.00 | 0.00 | 90 | 1008.9 |
| 20260506040551 | 24 | 175 | 16.1 | 22.5 | 0.00 | 0.00 | 0.00 | 90 | 1008.8 |
| 20260506040055 | 24 | 153 | 14.5 | 22.5 | 0.00 | 0.00 | 0.00 | 90 | 1008.8 |
| 20260506035555 | 24 | 161 | 11.3 | 19.3 | 0.00 | 0.00 | 0.00 | 90 | 1008.8 |
| 20260506035053 | 24 | 163 | 12.9 | 20.9 | 0.00 | 0.00 | 0.00 | 90 | 1008.8 |
| 20260506034610 | 24 | 152 | 12.9 | 20.9 | 0.00 | 0.00 | 0.00 | 90 | 1008.8 |
| 20260506034056 | 24 | 160 | 14.5 | 20.9 | 0.00 | 0.00 | 0.00 | 89 | 1008.7 |
| 20260506033551 | 24 | 146 | 12.9 | 17.7 | 0.00 | 0.00 | 0.00 | 89 | 1008.8 |
| 20260506033054 | 24 | 156 | 12.9 | 17.7 | 0.00 | 0.00 | 0.00 | 89 | 1008.8 |
| 20260506032554 | 24 | 160 | 9.7 | 17.7 | 0.00 | 0.00 | 0.00 | 89 | 1008.7 |
| 20260506032053 | 24 | 147 | 12.9 | 17.7 | 0.00 | 0.00 | 0.00 | 89 | 1008.7 |
| 20260506031556 | 24 | 162 | 11.3 | 17.7 | 0.00 | 0.00 | 0.00 | 89 | 1008.7 |
| 20260506031054 | 24 | 154 | 8.0 | 11.3 | 0.00 | 0.00 | 0.00 | 89 | 1008.7 |
| 20260506030550 | 24 | 154 | 6.4 | 11.3 | 0.00 | 0.00 | 0.00 | 89 | 1008.6 |
| 20260506030056 | 24 | 151 | 8.0 | 14.5 | 0.00 | 0.00 | 0.00 | 89 | 1008.4 |
| 20260506025555 | 24 | 168 | 9.7 | 14.5 | 0.00 | 0.00 | 0.00 | 89 | 1008.3 |
| 20260506025056 | 24 | 158 | 9.7 | 12.9 | 0.00 | 0.00 | 0.00 | 89 | 1008.2 |
| 20260506024612 | 24 | 136 | 8.0 | 11.3 | 0.00 | 0.00 | 0.00 | 89 | 1008.2 |
| 20260506024051 | 25 | 165 | 8.0 | 11.3 | 0.00 | 0.00 | 0.00 | 89 | 1008.1 |
| 20260506023550 | 24 | 136 | 4.8 | 12.9 | 0.00 | 0.00 | 0.00 | 89 | 1008.1 |
| 20260506023055 | 24 | 126 | 6.4 | 12.9 | 0.00 | 0.00 | 0.00 | 89 | 1008.0 |
| 20260506022554 | 24 | 148 | 8.0 | 12.9 | 0.00 | 0.00 | 0.00 | 89 | 1007.8 |
| 20260506022051 | 24 | 150 | 4.8 | 9.7 | 0.00 | 0.00 | 0.00 | 89 | 1007.8 |
| 20260506021554 | 24 | 183 | 4.8 | 9.7 | 0.00 | 0.00 | 0.00 | 89 | 1007.8 |
| 20260506021054 | 24 | 149 | 4.8 | 9.7 | 0.00 | 0.00 | 0.00 | 89 | 1007.7 |
| 20260506020555 | 25 | 154 | 6.4 | 11.3 | 0.00 | 0.00 | 0.00 | 88 | 1007.6 |
| 20260506020051 | 25 | 160 | 6.4 | 11.3 | 0.00 | 0.00 | 0.00 | 88 | 1007.7 |
| 20260506015554 | 25 | 150 | 8.0 | 14.5 | 0.00 | 0.00 | 0.00 | 88 | 1007.6 |
| 20260506015054 | 25 | 153 | 8.0 | 14.5 | 0.00 | 0.00 | 0.00 | 87 | 1007.6 |
| 20260506014553 | 25 | 155 | 9.7 | 20.9 | 0.00 | 0.00 | 0.00 | 87 | 1007.5 |
| 20260506014057 | 25 | 146 | 9.7 | 20.9 | 0.00 | 0.00 | 0.00 | 87 | 1007.3 |
| 20260506013555 | 25 | 163 | 12.9 | 19.3 | 0.00 | 0.00 | 0.00 | 87 | 1007.2 |
| 20260506013107 | 25 | 142 | 12.9 | 19.3 | 0.00 | 0.00 | 0.00 | 86 | 1007.2 |
| 20260506012558 | 25 | 148 | 11.3 | 19.3 | 0.00 | 0.00 | 0.00 | 86 | 1007.0 |
| 20260506012053 | 25 | 154 | 12.9 | 20.9 | 0.00 | 0.00 | 0.00 | 86 | 1007.0 |
| 20260506011606 | 25 | 148 | 14.5 | 20.9 | 0.00 | 0.00 | 0.00 | 85 | 1006.9 |
| 20260506011053 | 25 | 163 | 14.5 | 20.9 | 0.00 | 0.00 | 0.00 | 85 | 1006.8 |
| 20260506010554 | 25 | 150 | 16.1 | 20.9 | 0.00 | 0.00 | 0.00 | 85 | 1006.8 |
| 20260506010056 | 25 | 158 | 14.5 | 19.3 | 0.00 | 0.00 | 0.00 | 84 | 1006.8 |
| 20260506005554 | 25 | 148 | 14.5 | 20.9 | 0.00 | 0.00 | 0.00 | 84 | 1006.7 |
| 20260506005055 | 26 | 157 | 14.5 | 22.5 | 0.00 | 0.00 | 0.00 | 84 | 1006.8 |
| 20260506004555 | 26 | 141 | 12.9 | 22.5 | 0.00 | 0.00 | 0.00 | 83 | 1006.8 |
| 20260506004053 | 26 | 159 | 17.7 | 24.1 | 0.00 | 0.00 | 0.00 | 83 | 1006.7 |
| 20260506003552 | 26 | 144 | 16.1 | 24.1 | 0.00 | 0.00 | 0.00 | 82 | 1006.5 |
| 20260506003055 | 26 | 153 | 16.1 | 22.5 | 0.00 | 0.00 | 0.00 | 82 | 1006.6 |
| 20260506002554 | 26 | 133 | 17.7 | 22.5 | 0.00 | 0.00 | 0.00 | 82 | 1006.6 |
| 20260506002054 | 26 | 150 | 14.5 | 20.9 | 0.00 | 0.00 | 0.00 | 82 | 1006.5 |
| 20260506001554 | 26 | 143 | 12.9 | 24.1 | 0.00 | 0.00 | 0.00 | 82 | 1006.5 |
| 20260506001054 | 26 | 155 | 12.9 | 24.1 | 0.00 | 0.00 | 0.00 | 82 | 1006.6 |
| 20260506000554 | 26 | 146 | 16.1 | 29.0 | 0.00 | 0.00 | 0.00 | 82 | 1006.5 |
| 20260506000055 | 26 | 155 | 17.7 | 29.0 | 0.00 | 0.00 | 0.00 | 82 | 1006.5 |
| 20260505235554 | 26 | 146 | 19.3 | 29.0 | 0.00 | 0.00 | 0.00 | 82 | 1006.5 |
| 20260505235054 | 26 | 148 | 17.7 | 22.5 | 0.00 | 0.00 | 0.00 | 82 | 1006.5 |
| 20260505234557 | 26 | 138 | 14.5 | 25.7 | 0.00 | 0.00 | 0.00 | 81 | 1006.4 |
| 20260505234051 | 26 | 166 | 17.7 | 27.4 | 0.00 | 0.00 | 0.00 | 81 | 1006.4 |
| 20260505233554 | 27 | 139 | 17.7 | 27.4 | 0.00 | 0.00 | 0.00 | 80 | 1006.3 |
| 20260505233053 | 27 | 139 | 17.7 | 27.4 | 0.00 | 0.00 | 0.00 | 80 | 1006.3 |
| 20260505232554 | 27 | 145 | 16.1 | 22.5 | 0.00 | 0.00 | 0.00 | 80 | 1006.4 |
| 20260505232058 | 27 | 146 | 16.1 | 22.5 | 0.00 | 0.00 | 0.00 | 80 | 1006.4 |
| 20260505231633 | 27 | 140 | 17.7 | 22.5 | 0.00 | 0.00 | 0.00 | 79 | 1006.3 |
| 20260505231058 | 27 | 146 | 17.7 | 22.5 | 0.00 | 0.00 | 0.00 | 78 | 1006.1 |
| 20260505230556 | 27 | 213 | 14.5 | 22.5 | 0.00 | 0.00 | 0.00 | 77 | 1006.1 |
| 20260505230106 | 27 | 158 | 12.9 | 29.0 | 0.00 | 0.00 | 0.00 | 77 | 1006.2 |
| 20260505225556 | 28 | 165 | 19.3 | 29.0 | 0.00 | 0.00 | 0.00 | 77 | 1006.2 |
| 20260505225056 | 28 | 159 | 17.7 | 25.7 | 0.00 | 0.00 | 0.00 | 77 | 1006.2 |
| 20260505224556 | 28 | 145 | 17.7 | 25.7 | 0.00 | 0.00 | 0.00 | 76 | 1006.1 |
| 20260505224055 | 27 | 156 | 14.5 | 29.0 | 0.00 | 0.00 | 0.00 | 76 | 1006.1 |
| 20260505223555 | 27 | 129 | 16.1 | 29.0 | 0.00 | 0.00 | 0.00 | 77 | 1006.2 |
| 20260505223110 | 27 | 165 | 19.3 | 30.6 | 0.00 | 0.00 | 0.00 | 76 | 1006.1 |
| 20260505222555 | 28 | 147 | 17.7 | 30.6 | 0.00 | 0.00 | 0.00 | 77 | 1006.3 |
| 20260505222055 | 27 | 161 | 22.5 | 30.6 | 0.00 | 0.00 | 0.00 | 77 | 1006.2 |
| 20260505221557 | 28 | 146 | 19.3 | 29.0 | 0.00 | 0.00 | 0.00 | 77 | 1006.2 |
| 20260505221058 | 28 | 154 | 19.3 | 32.2 | 0.00 | 0.00 | 0.00 | 76 | 1006.2 |
| 20260505220600 | 28 | 162 | 19.3 | 32.2 | 0.00 | 0.00 | 0.00 | 76 | 1006.3 |
| 20260505220056 | 28 | 165 | 20.9 | 30.6 | 0.00 | 0.00 | 0.00 | 77 | 1006.2 |
| 20260505215556 | 28 | 160 | 22.5 | 30.6 | 0.00 | 0.00 | 0.00 | 76 | 1006.2 |
| 20260505215056 | 28 | 176 | 20.9 | 30.6 | 0.00 | 0.00 | 0.00 | 76 | 1006.4 |
| 20260505214557 | 28 | 155 | 17.7 | 30.6 | 0.00 | 0.00 | 0.00 | 78 | 1006.5 |
| 20260505214055 | 28 | 143 | 20.9 | 30.6 | 0.00 | 0.00 | 0.00 | 79 | 1006.4 |
| 20260505213600 | 28 | 150 | 20.9 | 35.4 | 0.00 | 0.00 | 0.00 | 77 | 1006.5 |
| 20260505213102 | 28 | 149 | 24.1 | 35.4 | 0.00 | 0.00 | 0.00 | 76 | 1006.6 |
| 20260505212555 | 28 | 142 | 22.5 | 30.6 | 0.00 | 0.00 | 0.00 | 76 | 1006.7 |
| 20260505212056 | 28 | 146 | 22.5 | 30.6 | 0.00 | 0.00 | 0.00 | 76 | 1006.9 |
| 20260505211555 | 28 | 153 | 22.5 | 30.6 | 0.00 | 0.00 | 0.00 | 77 | 1007.0 |
| 20260505211057 | 28 | 147 | 17.7 | 25.7 | 0.00 | 0.00 | 0.00 | 76 | 1006.9 |
| 20260505210556 | 28 | 155 | 19.3 | 25.7 | 0.00 | 0.00 | 0.00 | 73 | 1007.1 |
| 20260505210056 | 28 | 153 | 17.7 | 29.0 | 0.00 | 0.00 | 0.00 | 74 | 1007.2 |
| 20260505205555 | 28 | 179 | 20.9 | 29.0 | 0.00 | 0.00 | 0.00 | 74 | 1007.3 |
| 20260505205056 | 28 | 149 | 19.3 | 25.7 | 0.00 | 0.00 | 0.00 | 75 | 1007.3 |
| 20260505204601 | 28 | 168 | 17.7 | 25.7 | 0.00 | 0.00 | 0.00 | 75 | 1007.4 |
| 20260505204056 | 28 | 193 | 14.5 | 27.4 | 0.00 | 0.00 | 0.00 | 75 | 1007.6 |
| 20260505203555 | 28 | 156 | 19.3 | 27.4 | 0.00 | 0.00 | 0.00 | 75 | 1007.7 |
| 20260505203116 | 28 | 169 | 17.7 | 24.1 | 0.00 | 0.00 | 0.00 | 75 | 1007.9 |
| 20260505202557 | 28 | 168 | 17.7 | 25.7 | 0.00 | 0.00 | 0.00 | 74 | 1007.9 |
| 20260505202056 | 28 | 148 | 17.7 | 25.7 | 0.00 | 0.00 | 0.00 | 76 | 1007.9 |
| 20260505201557 | 28 | 162 | 17.7 | 24.1 | 0.00 | 0.00 | 0.00 | 74 | 1008.0 |
| 20260505201056 | 28 | 172 | 14.5 | 25.7 | 0.00 | 0.00 | 0.00 | 76 | 1008.1 |
| 20260505200558 | 28 | 172 | 16.1 | 25.7 | 0.00 | 0.00 | 0.00 | 75 | 1008.1 |
| 20260505200054 | 28 | 190 | 17.7 | 25.7 | 0.00 | 0.00 | 0.00 | 77 | 1008.2 |
| 20260505195558 | 28 | 171 | 14.5 | 24.1 | 0.00 | 0.00 | 0.00 | 76 | 1008.2 |
| 20260505195055 | 28 | 160 | 16.1 | 24.1 | 0.00 | 0.00 | 0.00 | 76 | 1008.3 |
| 20260505194610 | 28 | 167 | 16.1 | 27.4 | 0.00 | 0.00 | 0.00 | 76 | 1008.4 |
| 20260505194059 | 28 | 195 | 19.3 | 27.4 | 0.00 | 0.00 | 0.00 | 74 | 1008.4 |
| 20260505193556 | 28 | 176 | 17.7 | 25.7 | 0.00 | 0.00 | 0.00 | 75 | 1008.3 |
| 20260505193056 | 28 | 190 | 16.1 | 25.7 | 0.00 | 0.00 | 0.00 | 76 | 1008.6 |
| 20260505192559 | 27 | 198 | 16.1 | 24.1 | 0.00 | 0.00 | 0.00 | 76 | 1008.6 |
| 20260505192056 | 27 | 199 | 14.5 | 22.5 | 0.00 | 0.00 | 0.00 | 79 | 1008.8 |
| 20260505191554 | 27 | 211 | 16.1 | 20.9 | 0.00 | 0.00 | 0.00 | 79 | 1008.7 |
| 20260505191057 | 27 | 191 | 14.5 | 19.3 | 0.00 | 0.00 | 0.00 | 79 | 1008.8 |
| 20260505190559 | 27 | 175 | 14.5 | 19.3 | 0.00 | 0.00 | 0.00 | 80 | 1008.8 |
| 20260505190054 | 27 | 191 | 12.9 | 19.3 | 0.00 | 0.00 | 0.00 | 78 | 1008.9 |
| 20260505185559 | 27 | 214 | 11.3 | 22.5 | 0.00 | 0.00 | 0.00 | 81 | 1008.9 |
| 20260505185056 | 26 | 191 | 11.3 | 22.5 | 0.00 | 0.00 | 0.00 | 82 | 1008.9 |
| 20260505184556 | 26 | 157 | 14.5 | 22.5 | 0.00 | 0.00 | 0.00 | 81 | 1009.0 |
| 20260505184056 | 27 | 191 | 14.5 | 22.5 | 0.00 | 0.00 | 0.00 | 79 | 1009.0 |
| 20260505183557 | 27 | 162 | 16.1 | 22.5 | 0.00 | 0.00 | 0.00 | 80 | 1009.0 |
| 20260505183101 | 27 | 181 | 14.5 | 24.1 | 0.00 | 0.00 | 0.00 | 79 | 1009.0 |
| 20260505182556 | 27 | 157 | 14.5 | 24.1 | 0.00 | 0.00 | 0.00 | 80 | 1009.0 |
| 20260505182056 | 26 | 200 | 16.1 | 25.7 | 0.00 | 0.00 | 0.00 | 80 | 1009.1 |
| 20260505181554 | 26 | 210 | 16.1 | 25.7 | 0.00 | 0.00 | 0.00 | 81 | 1009.1 |
| 20260505181056 | 26 | 203 | 16.1 | 25.7 | 0.00 | 0.00 | 0.00 | 81 | 1009.2 |
| 20260505180556 | 26 | 193 | 16.1 | 25.7 | 0.00 | 0.00 | 0.00 | 81 | 1009.2 |
| 20260505175556 | 26 | 210 | 16.1 | 25.7 | 0.00 | 0.00 | 0.00 | 82 | 1009.2 |
| 20260505175057 | 26 | 184 | 16.1 | 25.7 | 0.00 | 0.00 | 0.00 | 83 | 1009.3 |
| 20260505174558 | 26 | 233 | 19.3 | 25.7 | 0.00 | 0.00 | 0.00 | 82 | 1009.4 |
| 20260505174056 | 26 | 203 | 16.1 | 27.4 | 0.00 | 0.00 | 0.00 | 82 | 1009.4 |
| 20260505173559 | 25 | 221 | 19.3 | 27.4 | 0.00 | 0.00 | 0.00 | 82 | 1009.4 |
| 20260505173056 | 26 | 195 | 16.1 | 27.4 | 0.00 | 0.00 | 0.00 | 82 | 1009.5 |
| 20260505172554 | 26 | 198 | 14.5 | 27.4 | 0.00 | 0.00 | 0.00 | 84 | 1009.5 |
| 20260505172055 | 25 | 232 | 19.3 | 27.4 | 0.00 | 0.00 | 0.00 | 82 | 1009.5 |
| 20260505171556 | 25 | 207 | 19.3 | 29.0 | 0.00 | 0.00 | 0.00 | 81 | 1009.5 |
| 20260505171058 | 25 | 208 | 19.3 | 30.6 | 0.00 | 0.00 | 0.00 | 81 | 1009.5 |
| 20260505170557 | 26 | 205 | 20.9 | 30.6 | 0.00 | 0.00 | 0.00 | 81 | 1009.5 |
| 20260505170055 | 26 | 204 | 20.9 | 30.6 | 0.00 | 0.00 | 0.00 | 81 | 1009.6 |
| 20260505165556 | 26 | 207 | 16.1 | 27.4 | 0.00 | 0.00 | 0.00 | 83 | 1009.6 |
| 20260505165115 | 26 | 226 | 14.5 | 29.0 | 0.00 | 0.00 | 0.00 | 81 | 1009.6 |
| 20260505164600 | 25 | 206 | 20.9 | 29.0 | 0.00 | 0.00 | 0.00 | 83 | 1009.6 |
| 20260505164054 | 25 | 202 | 17.7 | 27.4 | 0.00 | 0.00 | 0.00 | 84 | 1009.6 |
| 20260505163555 | 25 | 221 | 14.5 | 25.7 | 0.00 | 0.00 | 0.00 | 84 | 1009.7 |
| 20260505163056 | 25 | 205 | 19.3 | 25.7 | 0.00 | 0.00 | 0.00 | 85 | 1009.7 |
| 20260505162554 | 25 | 205 | 17.7 | 25.7 | 0.00 | 0.00 | 0.00 | 84 | 1009.7 |
| 20260505162054 | 25 | 226 | 14.5 | 30.6 | 0.00 | 0.00 | 0.00 | 85 | 1009.7 |
| 20260505161554 | 25 | 217 | 20.9 | 30.6 | 0.00 | 0.00 | 0.00 | 85 | 1009.7 |
| 20260505161051 | 25 | 222 | 20.9 | 27.4 | 0.00 | 0.00 | 0.00 | 84 | 1009.6 |
| 20260505160555 | 25 | 223 | 17.7 | 25.7 | 0.00 | 0.00 | 0.00 | 85 | 1009.7 |
| 20260505153109 | 24 | 150 | 14.5 | 22.5 | 0.00 | 0.00 | 0.00 | 89 | 1009.6 |
| 20260505152553 | 23 | 209 | 16.1 | 22.5 | 0.00 | 0.00 | 0.00 | 89 | 1009.6 |
| 20260505152054 | 23 | 204 | 16.1 | 25.7 | 0.00 | 0.00 | 0.00 | 90 | 1009.5 |
| 20260505151557 | 23 | 204 | 14.5 | 25.7 | 0.00 | 0.00 | 0.00 | 91 | 1009.6 |
| 20260505151053 | 23 | 200 | 16.1 | 25.7 | 0.00 | 0.00 | 0.00 | 91 | 1009.6 |
| 20260505150554 | 23 | 194 | 16.1 | 20.9 | 0.00 | 0.00 | 0.00 | 91 | 1009.6 |
| 20260505140554 | 22 | 199 | 12.9 | 20.9 | 0.00 | 0.00 | 0.00 | 94 | 1009.4 |
| 20260505140105 | 22 | 233 | 12.9 | 22.5 | 0.00 | 0.00 | 0.00 | 94 | 1009.3 |
| 20260505130110 | 21 | 202 | 12.9 | 19.3 | 0.00 | 0.00 | 0.00 | 94 | 1009.0 |
| 20260505124608 | 21 | 146 | 12.9 | 17.7 | 0.00 | 0.00 | 0.00 | 95 | 1008.8 |
| 20260505124055 | 21 | 186 | 11.3 | 17.7 | 0.00 | 0.00 | 0.00 | 95 | 1008.8 |
| 20260505123556 | 21 | 213 | 11.3 | 16.1 | 0.00 | 0.00 | 0.00 | 95 | 1008.8 |
| 20260505123117 | 21 | 215 | 11.3 | 17.7 | 0.00 | 0.00 | 0.00 | 95 | 1008.8 |
| 20260505122559 | 21 | 203 | 11.3 | 17.7 | 0.00 | 0.00 | 0.00 | 95 | 1008.7 |
| 20260505122055 | 21 | 163 | 12.9 | 17.7 | 0.00 | 0.00 | 0.00 | 95 | 1008.6 |
| 20260505121556 | 21 | 167 | 11.3 | 16.1 | 0.00 | 0.00 | 0.00 | 95 | 1008.6 |
| 20260505121055 | 21 | 181 | 11.3 | 14.5 | 0.00 | 0.00 | 0.00 | 95 | 1008.7 |
| 20260505120556 | 21 | 184 | 9.7 | 14.5 | 0.00 | 0.00 | 0.00 | 95 | 1008.6 |
| 20260505120100 | 21 | 173 | 11.3 | 14.5 | 0.00 | 0.00 | 0.00 | 95 | 1008.5 |
| 20260505115558 | 20 | 196 | 8.0 | 12.9 | 0.00 | 0.00 | 0.00 | 95 | 1008.4 |
| 20260505115056 | 20 | 190 | 9.7 | 12.9 | 0.00 | 0.00 | 0.00 | 95 | 1008.3 |
| 20260505114558 | 20 | 160 | 9.7 | 17.7 | 0.00 | 0.00 | 0.00 | 95 | 1008.3 |
| 20260505114059 | 20 | 213 | 9.7 | 19.3 | 0.00 | 0.00 | 0.00 | 95 | 1008.3 |
| 20260505113558 | 20 | 191 | 12.9 | 19.3 | 0.00 | 0.00 | 0.00 | 95 | 1008.3 |
| 20260505113101 | 20 | 193 | 11.3 | 19.3 | 0.00 | 0.00 | 0.00 | 95 | 1008.2 |
| 20260505112556 | 20 | 193 | 12.9 | 19.3 | 0.00 | 0.00 | 0.00 | 95 | 1008.1 |
| 20260505112056 | 20 | 172 | 11.3 | 17.7 | 0.00 | 0.00 | 0.00 | 95 | 1008.1 |
| 20260505111558 | 20 | 203 | 12.9 | 19.3 | 0.00 | 0.00 | 0.00 | 95 | 1008.1 |
| 20260505111058 | 20 | 196 | 11.3 | 19.3 | 0.00 | 0.00 | 0.00 | 95 | 1008.1 |
| 20260505110555 | 20 | 158 | 12.9 | 16.1 | 0.00 | 0.00 | 0.00 | 95 | 1008.1 |
| 20260505110105 | 20 | 187 | 11.3 | 16.1 | 0.00 | 0.00 | 0.00 | 95 | 1008.1 |
| 20260505102058 | 20 | 190 | 11.3 | 14.5 | 0.00 | 0.00 | 0.00 | 95 | 1008.2 |
| 20260505101603 | 20 | 199 | 11.3 | 14.5 | 0.00 | 0.00 | 0.00 | 95 | 1008.2 |
| 20260505101055 | 20 | 187 | 9.7 | 14.5 | 0.00 | 0.00 | 0.00 | 95 | 1008.1 |
| 20260505100555 | 20 | 167 | 9.7 | 14.5 | 0.00 | 0.00 | 0.00 | 95 | 1008.2 |
| 20260505100057 | 20 | 143 | 11.3 | 16.1 | 0.00 | 0.00 | 0.00 | 95 | 1008.3 |
| 20260505095559 | 20 | 192 | 11.3 | 16.1 | 0.00 | 0.00 | 0.00 | 95 | 1008.5 |
| 20260505095054 | 20 | 204 | 11.3 | 16.1 | 0.00 | 0.00 | 0.00 | 95 | 1008.5 |
| 20260505094558 | 20 | 195 | 9.7 | 16.1 | 0.00 | 0.00 | 0.00 | 95 | 1008.3 |
| 20260505094054 | 20 | 181 | 11.3 | 17.7 | 0.00 | 0.00 | 0.00 | 95 | 1008.3 |
| 20260505093554 | 20 | 163 | 9.7 | 17.7 | 0.00 | 0.00 | 0.00 | 94 | 1008.3 |
| 20260505093058 | 20 | 178 | 11.3 | 17.7 | 0.00 | 0.00 | 0.00 | 94 | 1008.3 |